This is the latest recevied weather packets stored in our database for station/object SQ5LTL-2. If no packets are shown the sender has not sent any weather packets the latest 10 day(s).
| Time | Temp. | Humidity | Pressure | Rain* | Wind** | Luminosity | Snow |
|---|---|---|---|---|---|---|---|
| 1778004927 | 19.44° C | 44% | 1007.5 hPa | 0 mm | - | 1 W/m² | - |
| 1778004325 | 20.56° C | 43% | 1007.4 hPa | 0 mm | - | 2 W/m² | - |
| 1778002817 | 22.22° C | 37% | 1007.4 hPa | 0 mm | - | 13 W/m² | - |
| 1778002516 | 22.22° C | 37% | 1007.3 hPa | 0 mm | - | 17 W/m² | - |
| 1778002234 | 21.67° C | 37% | 1007.5 hPa | 0 mm | - | 21 W/m² | - |
| 1778001933 | 21.67° C | 36% | 1007.4 hPa | 0 mm | - | 26 W/m² | - |
| 1778001632 | 21.67° C | 38% | 1007.5 hPa | 0 mm | - | 29 W/m² | - |
| 1778001330 | 22.22° C | 38% | 1007.5 hPa | 0 mm | - | 31 W/m² | - |
| 1778001030 | 22.78° C | 37% | 1007.5 hPa | 0 mm | - | 31 W/m² | - |
| 1778000728 | 22.78° C | 37% | 1007.5 hPa | 0 mm | - | 32 W/m² | - |
| 1778000426 | 22.78° C | 34% | 1007.5 hPa | 0 mm | - | 33 W/m² | - |
| 1777999219 | 23.89° C | 36% | 1007.7 hPa | 0 mm | - | 43 W/m² | - |
| 1777998918 | 23.89° C | 33% | 1007.7 hPa | 0 mm | - | 47 W/m² | - |
| 1777998617 | 24.44° C | 31% | 1007.7 hPa | 0 mm | - | 50 W/m² | - |
| 1777998335 | 24.44° C | 30% | 1007.8 hPa | 0 mm | - | 55 W/m² | - |
| 1777997732 | 24.44° C | 29% | 1007.8 hPa | 0 mm | - | 68 W/m² | - |
| 1777997129 | 25° C | 28% | 1007.9 hPa | 0 mm | - | 71 W/m² | - |
| 1777995924 | 26.11° C | 26% | 1008 hPa | 0 mm | - | 80 W/m² | - |
| 1777995320 | 26.11° C | 25% | 1008.1 hPa | 0 mm | - | 153 W/m² | - |
| 1777995019 | 26.67° C | 25% | 1008.2 hPa | 0 mm | - | 188 W/m² | - |
| 1777994718 | 26.11° C | 25% | 1008.2 hPa | 0 mm | - | 210 W/m² | - |
| 1777994136 | 25.56° C | 25% | 1008.3 hPa | 0 mm | - | 161 W/m² | - |
| 1777993532 | 25.56° C | 25% | 1008.3 hPa | 0 mm | - | 122 W/m² | - |
| 1777991723 | 26.11° C | 23% | 1008.5 hPa | 0 mm | - | 146 W/m² | - |
| 1777991121 | 26.67° C | 23% | 1008.9 hPa | 0 mm | - | 155 W/m² | - |
* Rain latest hour (hover to see other rain measurements)
** Current wind speed in m/s (hover to see current wind gust speed)